Regional Weather Roundup
Issued by NWS

Home | Current Version | Previous Version | Graphics & Text | Print | Product List | Glossary On
Versions: 1 2 3 4 5 6 7 8 9 10 11 12 13 14 15 16 17 18 19 20 21 22 23 24 25 26 27 28 29 30 31 32 33 34 35 36 37 38 39 40 41 42 43 44 45 46 47 48 49 50
566
ASUS44 KLIX 252201
RWRLA
LOUISIANA WEATHER ROUNDUP
NATIONAL WEATHER SERVICE NEW ORLEANS LA
500 PM CDT FRI JUL 25 2014

NOTE: "FAIR" INDICATES FEW OR NO CLOUDS BELOW 12,000 FEET WITH NO
      SIGNIFICANT WEATHER AND/OR OBSTRUCTIONS TO VISIBILITY.
      SKY/WX - SKY CONDITION AND SIGNIFICANT WEATHER.
      TMP - AIR TEMPERATURE.    DP   - DEWPOINT TEMPERATURE.
      RH  - RELATIVE HUMIDITY.  PRES - PRESSURE.
      HX  - HEAT INDEX.         WCI  - WIND CHILL INDEX.

*  THESE STATIONS ARE NOT NWS OR FAA STATIONS AND ARE NOT UNDER
   NWS QUALITY CONTROL.

LAZ040-048-061>063-065-066-069-252300-
SOUTHEAST LOUISIANA

CITY           SKY/WX    TMP DP  RH WIND       PRES   REMARKS
N.O. AUDUBON   NOT AVBL
N.O. INTL ARPT PTSUNNY   82  71  69 SW12      29.98R THUNDER
N.O. LAKEFRONT PTSUNNY   88  71  57 CALM      29.98S
N.O. DOWNTOWN* MOCLDY    86  72  62 SW6       29.98S
SLIDELL        PTSUNNY   90  72  55 VRB3      29.98S HX  97
BATON ROUGE    MOSUNNY   92  72  51 VRB6      29.96F HX  99
BOOTHVILLE     SUNNY     87  76  69 SW12      30.00F HX  97
BELLE CHASSE   PTSUNNY   82  73  74 W9G18     29.99R THUNDER
BOGALUSA*      MOCLDY    89  73  57 CALM      29.99S HX  97
GALLIANO*      NOT AVBL
NEW ROADS*     FAIR      91  73  56 CALM      29.97S HX  99
GONZALES*      MOCLDY    91  75  59 SW5       29.96S HX 102
HAMMOND*       MOSUNNY   95  68  41 N6        29.98S HX  99
HOUMA*         MOSUNNY   91  73  55 W7        29.98S HX 100
PORT FOURCHON* PTCLDY    88  75  66 W12G18    30.01S HX  97

$$

LAZ041-044-053-054-252300-
SOUTHWEST LOUISIANA

CITY           SKY/WX    TMP DP  RH WIND       PRES   REMARKS
LAKE CHARLES   MOSUNNY   90  74  59 VRB5      29.96F HX  99
LAFAYETTE      HVY RAIN  79  73  82 S10G24    29.98S VSB 3/4
PATTERSON      MOSUNNY   90  75  62 SW8       30.03S HX 100
SALT POINT       N/A     91  76  61 VRB6      29.98F HX 103
NEW IBERIA     TSTM      83  72  69 MISG      29.99R
CHENAULT AIRPK NOT AVBL

$$

LAZ027-028-252300-
CENTRAL LOUISIANA

CITY           SKY/WX    TMP DP  RH WIND       PRES   REMARKS
FORT POLK      CLOUDY    93  71  48 SE3       29.97F HX 100
ALEXANDRIA INT SUNNY     93  72  50 N6        29.95F HX 101
ALEXANDRIA     SUNNY     95  71  45 CALM      29.96F HX 102

$$

LAZ001-002-252300-
NORTHWEST LOUISIANA

CITY           SKY/WX    TMP DP  RH WIND       PRES   REMARKS
SHREVEPORT     MOSUNNY   94  71  47 VRB6      29.96F HX 101
BARKSDALE AFB  MOSUNNY   90  70  51 CALM      29.97F HX  96
DTN SHREVEPORT SUNNY     92  70  48 W5        29.97F HX  97

$$

LAZ014-016-252300-
NORTHEAST LOUISIANA

CITY           SKY/WX    TMP DP  RH WIND       PRES   REMARKS
MONROE         PTSUNNY   90  72  55 E3        29.98F HX  97
TALLULAH       MOSUNNY   89  73  59 N8        29.99S HX  97

$$




USA.gov is the U.S. government's official web portal to all federal, state and local government web resources and services.